Regional Weather Roundup
Issued by NWS Upton, NY

Current Version | Previous Version | Text Only | Print | Product List | Glossary On
Versions: 1 2 3 4 5 6 7 8 9 10 11 12 13 14 15 16 17 18 19 20 21 22 23 24 25 26 27 28 29 30 31 32 33 34 35 36 37 38 39 40 41 42 43 44 45 46 47 48 49 50
000 ASUS41 KOKX 260908 RWROKX REGIONAL WEATHER ROUNDUP NATIONAL WEATHER SERVICE NEW YORK NY 400 AM EST SUN FEB 26 2017 NOTE: "FAIR" INDICATES FEW OR NO CLOUDS BELOW 12,000 FEET WITH NO SIGNIFICANT WEATHER AND/OR OBSTRUCTIONS TO VISIBILITY. NYZ071-072-176-178-NJZ106-104-261000- NEW YORK CITY METRO AREA CITY SKY/WX TMP DP RH WIND PRES REMARKS Central Park CLOUDY 39 24 55 NW12G21 29.80R WCI 32 Wall St Helipt NOT AVBL LaGuardia APRT MOCLDY 43 26 51 NW23G30 29.77R Kennedy INTL MOCLDY 43 28 55 NW20G26 29.78R Breezy Point N/A 39 N/A N/A NW20G29 N/A WCI 30 Newark/Liberty CLOUDY 41 25 53 NW18G25 29.79R Teterboro CLOUDY 41 24 51 NW16G26 29.78R $$ NYZ177-179-078>081-261000- LONG ISLAND NEW YORK CITY SKY/WX TMP DP RH WIND PRES REMARKS Jones Beach N/A 41 N/A N/A NW17G25 N/A Matinecock PT N/A 41 N/A N/A NW25G32 N/A Farmingdale CLOUDY 41 27 57 NW13G22 29.76R MacArthur/ISP CLOUDY 40 27 59 NW16G28 29.74R WCI 31 Shirley MOCLDY 40 29 64 NW20G30 29.74R WCI 30 Westhampton CLEAR 39 31 72 W10 29.73R WCI 32 Southampton NOT AVBL Bridgehampton NOT AVBL East Hampton N/A 39 31 72 NW10 29.70R WCI 32 Montauk N/A 40 32 73 NW10 29.70R WCI 33 $$ NYZ052-065-067-261000- HUDSON VALLEY CITY SKY/WX TMP DP RH WIND PRES REMARKS White Plains MOCLDY 38 23 55 NW18G24 29.74R WCI 28 Newburgh CLOUDY 36 21 55 W20G29 29.77 WCI 25 Montgomery CLEAR 36 19 50 W9G22 29.77R WCI 29 Poughkeepsie PTCLDY 36 18 48 W10 29.77R WCI 28 Albany FLURRIES 34 22 61 NW18G28 29.76R WCI 23 $$ NJZ001-105-106-008-010-013-015-019>022-104-261000- NEW JERSEY CITY SKY/WX TMP DP RH WIND PRES REMARKS Newark/Liberty CLOUDY 41 25 53 NW18G25 29.79R Teterboro CLOUDY 41 24 51 NW16G26 29.78R Caldwell MOCLDY 39 21 48 NW12G26 29.80R WCI 32 Somerville MOCLDY 38 26 62 NW10G21 29.80R WCI 31 Linden NOT AVBL Sussex PTCLDY 35 19 52 W9 29.80R WCI 28 Andover N/A 35 21 56 N6 29.79R WCI 30 Trenton PTCLDY 38 24 57 NW9 29.82R WCI 31 Millville CLEAR 38 24 57 W14G22 29.87R WCI 30 Atlantic City CLEAR 39 24 55 NW18G29 29.84R WCI 30 Wrightstown CLEAR 38 24 56 NW12 29.80R WCI 30 Toms River CLEAR 39 25 57 W17 29.83R WCI 30 Belmar CLEAR 39 25 57 W15G22 29.80R WCI 31 $$ PAZ047>061-062-071-261000- EASTERN PENNSYLVANIA CITY SKY/WX TMP DP RH WIND PRES REMARKS Philadelphia PTCLDY 39 20 46 W14 29.88R WCI 31 Allentown CLEAR 36 19 50 W13 29.84R WCI 27 Scranton CLOUDY 33 22 63 W13 29.83R WCI 24 $$ CTZ002-004>006-009-010-012-RIZ004-006-007-MAZ004-011-015-261000- SOUTHERN NEW ENGLAND IN CT CITY SKY/WX TMP DP RH WIND PRES REMARKS Bradley INTL MOCLDY 36 23 59 NW14G24 29.71R WCI 27 Hartford CLOUDY 39 22 50 NW16G23 29.72R WCI 30 Danbury CLEAR 36 18 48 W14G29 29.75R WCI 27 Wtrbury/Oxford MOCLDY 36 23 60 NW9 29.72R WCI 29 Bridgeport MOCLDY 42 25 50 NW17G26 29.73R Meriden PTCLDY 40 26 57 NW8 29.71R WCI 34 New Haven MOCLDY 40 27 59 NW14G20 29.72R WCI 32 Chester N/A 37 27 65 NW12G18 29.69R WCI 30 Groton CLEAR 39 27 62 NW16G26 29.68R WCI 30 Wilimantic CLEAR 39 24 55 NW17G29 29.69R WCI 30 IN RI CITY SKY/WX TMP DP RH WIND PRES REMARKS Providence PTCLDY 40 28 62 W13G23 29.64R WCI 32 Block Island PTCLDY 40 29 64 NW17G26 29.68R WCI 31 Westerly CLEAR 40 25 55 NW9G18 29.68R WCI 34 IN MA CITY SKY/WX TMP DP RH WIND PRES REMARKS Boston CLOUDY 42 31 64 W20G32 29.59R Worcester CLOUDY 34 23 64 W17G30 29.60R WCI 23 Westfield NOT AVBL Provincetown CLOUDY 43 35 73 W21 29.56R Nantucket CLOUDY 44 39 82 W14 29.60R $$ ANZ330-335-338-340-345-350-353-355-261000- COASTAL MARINE OBSERVATIONS STATION/POSITION TIME SKY/WX TEMP WIND PRES VSBY WAVE AIR SEA DIR/SP/G HT/PER (UTC) (F) (DEG/KT/KT) (MB) (MI) (FT/S) NY HARB ENTRANCE 0750 43 44 290/ 21/ 27 1006.7 5/10 20 S FIRE ISLAND 0750 43 44 310/ 16/ 23 1006.3 6/11 GREAT SOUTH BAY NOT AVBL 23 SSW MONTAUK P 0750 43 44 1004.4 7/11 15 E BARNEGAT LI 0830 44 N/A 6/10 HUDSON CANYON 0750 47 1005.4 8/11 KINGS POINT 0836 41 41 1008.0 EXECUTION ROCKS NOT AVBL CENTRAL LI SOUND 0830 42 300/ 19/ 25 N/A 2/ 3 EASTERN LI SOUND NOT AVBL ROBBINS REEF 0836 41 300/ 25/ 30 1008.2 $$ >>>>>>>>>>>>>>>>>>>>>>>>>>>> KEY <<<<<<<<<<<<<<<<<<<<<<<<<<< > < > SKY/WX - Sky Condition/Present Weather < > TMP - Temperature in Fahrenheit < > DP - Dew Point in Fahrenheit < > RH - Relative Humidity in Percent < > WIND - Direction (from) and Speed in MPH < > PRES - Mean Sea Level Pressure (inches of Hg) < > WCI - Wind Chill Index < > VSB - VISIBILITY IN MILES < > HX - HEAT INDEX < > TC - TEMPERATURE IN CELSIUS < > VRB - VARIABLE WIND DIRECTION < > < >>>>>>>>>>>>>>>>>>>>>>>>>>>> KEY <<<<<<<<<<<<<<<<<<<<<<<<<<<

USA.gov is the U.S. government's official web portal to all federal, state and local government web resources and services.